Location: Caltech
(34.1382°N, 118.1253°W)
Time: 05:50:55
(UTC-08:00)

HO-68 - Visible Passes

Search period start: 23 February 2017 00:00
Search period end: 05 March 2017 00:00
Orbit: 1192 x 1205 km, 100.1° (Epoch: 23 February)

Date Brightness Start Highest point End Pass type
(mag) Time Alt. Az. Time Alt. Az. Time Alt. Az.
23 Feb ? 18:16:58 10° SE 18:23:55 56° ENE 18:30:53 10° N visible
23 Feb ? 20:06:25 10° SW 20:11:53 23° W 20:17:24 10° NW visible
24 Feb ? 05:53:17 10° E 05:54:38 11° E 05:55:59 10° ESE visible
24 Feb ? 18:00:30 10° SE 18:07:07 42° ENE 18:13:45 10° N visible
24 Feb ? 19:48:36 10° SSW 19:54:50 32° W 20:01:06 10° NW visible
25 Feb ? 19:31:06 10° S 19:37:49 43° W 19:44:34 10° NNW visible
26 Feb ? 19:13:49 10° S 19:20:50 58° WSW 19:27:54 10° NNW visible
27 Feb ? 18:56:44 10° S 19:03:54 77° WSW 19:11:06 10° NNW visible
28 Feb ? 18:39:49 10° SSE 18:47:00 82° ENE 18:54:11 10° NNW visible
28 Feb ? 20:31:44 10° WSW 20:35:20 14° W 20:38:58 10° WNW visible
01 Mar ? 18:23:06 10° SSE 18:30:08 63° ENE 18:37:11 10° N visible
01 Mar ? 20:13:10 10° SW 20:18:13 20° W 20:23:18 10° NW visible
02 Mar ? 18:06:32 10° SE 18:13:20 47° ENE 18:20:06 10° N visible
02 Mar ? 19:55:11 10° SSW 20:01:08 28° W 20:07:07 10° NW visible
03 Mar ? 19:37:34 10° SSW 19:44:06 38° W 19:50:41 10° NNW visible
04 Mar ? 19:20:12 10° S 19:27:06 51° W 19:34:03 10° NNW visible
